Location: Lourdes
(43.1000°N, 0.0500°W)
Time: 17:02:11
(UTC+00:00)

Cosmos 2228 Rocket - Pass Details

Date: 30 November 2020
Orbit: 618 x 652 km, 82.5° (Epoch: 23 January)

Event Time Altitude Azimuth Distance (km) Brightness Sun altitude
Rises 18:40:50 0° 193° (SSW) 2,950 6.8 -23.9°
Reaches altitude 10° 18:43:05 10° 196° (SSW) 2,041 6.0 -24.3°
Maximum altitude 18:47:36 68° 279° (W) 694 3.4 -25.1°
Enters shadow 18:48:55 44° 346° (NNW) 891 3.8 -25.4°
